Year,Month,Day,Hour,Minute,Value (Times are PST for temperature in C)
2010,09,21,00,00,11.10
2010,09,21,00,01,11.10
2010,09,21,00,02,11.10
2010,09,21,00,03,11.10
2010,09,21,00,04,11.10
2010,09,21,00,05,11.10
2010,09,21,00,06,11.10
2010,09,21,00,07,11.10
2010,09,21,00,08,11.00
2010,09,21,00,09,11.00
2010,09,21,00,10,11.00
2010,09,21,00,11,11.00
2010,09,21,00,12,10.90
2010,09,21,00,13,10.90
2010,09,21,00,14,10.90
2010,09,21,00,15,10.90
2010,09,21,00,16,10.90
2010,09,21,00,17,10.80
2010,09,21,00,18,10.80
2010,09,21,00,19,10.80
2010,09,21,00,20,10.80
2010,09,21,00,21,10.80
2010,09,21,00,22,10.80
2010,09,21,00,23,10.80
2010,09,21,00,24,10.70
2010,09,21,00,25,10.70
2010,09,21,00,26,10.70
2010,09,21,00,27,10.70
2010,09,21,00,28,10.60
2010,09,21,00,29,10.60
2010,09,21,00,30,10.60
2010,09,21,00,31,10.60
2010,09,21,00,32,10.60
2010,09,21,00,33,10.60
2010,09,21,00,34,10.60
2010,09,21,00,35,10.50
2010,09,21,00,36,10.50
2010,09,21,00,37,10.50
2010,09,21,00,38,10.40
2010,09,21,00,39,10.40
2010,09,21,00,40,10.40
2010,09,21,00,41,10.40
2010,09,21,00,42,10.30
2010,09,21,00,43,10.30
2010,09,21,00,44,10.30
2010,09,21,00,45,10.30
2010,09,21,00,46,10.30
2010,09,21,00,47,10.30
2010,09,21,00,48,10.20
2010,09,21,00,49,10.20
2010,09,21,00,50,10.20
2010,09,21,00,51,10.20
2010,09,21,00,52,10.20
2010,09,21,00,53,10.10
2010,09,21,00,54,10.10
2010,09,21,00,55,10.10
2010,09,21,00,56,10.10
2010,09,21,00,57,10.10
2010,09,21,00,58,10.10
2010,09,21,00,59,10.00
2010,09,21,01,00,10.00
2010,09,21,01,01,10.00
2010,09,21,01,02,10.00
2010,09,21,01,03,10.00
2010,09,21,01,06,9.90
2010,09,21,01,07,9.90
2010,09,21,01,08,9.90
2010,09,21,01,09,9.90
2010,09,21,01,10,9.80
2010,09,21,01,11,9.80
2010,09,21,01,12,9.80
2010,09,21,01,13,9.80
2010,09,21,01,14,9.80
2010,09,21,01,15,9.80
2010,09,21,01,16,9.70
2010,09,21,01,17,9.70
2010,09,21,01,18,9.70
2010,09,21,01,19,9.70
2010,09,21,01,20,9.70
2010,09,21,01,21,9.70
2010,09,21,01,22,9.70
2010,09,21,01,23,9.70
2010,09,21,01,24,9.60
2010,09,21,01,25,9.60
2010,09,21,01,26,9.60
2010,09,21,01,27,9.60
2010,09,21,01,28,9.60
2010,09,21,01,29,9.60
2010,09,21,01,30,9.60
2010,09,21,01,31,9.60
2010,09,21,01,32,9.60
2010,09,21,01,33,9.60
2010,09,21,01,34,9.60
2010,09,21,01,35,9.50
2010,09,21,01,36,9.50
2010,09,21,01,37,9.50
2010,09,21,01,38,9.50
2010,09,21,01,39,9.40
2010,09,21,01,40,9.40
2010,09,21,01,41,9.40
2010,09,21,01,42,9.40
2010,09,21,01,43,9.40
2010,09,21,01,44,9.40
2010,09,21,01,45,9.40
2010,09,21,01,46,9.40
2010,09,21,01,47,9.40
2010,09,21,01,48,9.40
2010,09,21,01,49,9.40
2010,09,21,01,50,9.40
2010,09,21,01,51,9.40
2010,09,21,01,52,9.30
2010,09,21,01,53,9.30
2010,09,21,01,54,9.30
2010,09,21,01,55,9.30
2010,09,21,01,56,9.30
2010,09,21,01,57,9.30
2010,09,21,01,58,9.30
2010,09,21,01,59,9.30
2010,09,21,02,00,9.30
2010,09,21,02,01,9.30
2010,09,21,02,02,9.30
2010,09,21,02,03,9.30
2010,09,21,02,04,9.30
2010,09,21,02,05,9.30
2010,09,21,02,06,9.20
2010,09,21,02,07,9.20
2010,09,21,02,08,9.20
2010,09,21,02,09,9.20
2010,09,21,02,10,9.20
2010,09,21,02,11,9.20
2010,09,21,02,12,9.10
2010,09,21,02,13,9.10
2010,09,21,02,14,9.10
2010,09,21,02,15,9.10
2010,09,21,02,16,9.10
2010,09,21,02,17,9.10
2010,09,21,02,18,9.10
2010,09,21,02,19,9.10
2010,09,21,02,20,9.00
2010,09,21,02,21,9.00
2010,09,21,02,22,9.00
2010,09,21,02,23,9.00
2010,09,21,02,24,9.00
2010,09,21,02,25,9.00
2010,09,21,02,26,9.00
2010,09,21,02,27,9.00
2010,09,21,02,28,9.00
2010,09,21,02,29,9.00
2010,09,21,02,30,9.00
2010,09,21,02,31,9.00
2010,09,21,02,32,9.00
2010,09,21,02,33,9.00
2010,09,21,02,34,9.00
2010,09,21,02,35,8.90
2010,09,21,02,36,8.90
2010,09,21,02,37,8.90
2010,09,21,02,38,8.90
2010,09,21,02,39,8.90
2010,09,21,02,40,8.90
2010,09,21,02,41,8.90
2010,09,21,02,42,8.80
2010,09,21,02,43,8.80
2010,09,21,02,44,8.80
2010,09,21,02,45,8.80
2010,09,21,02,46,8.80
2010,09,21,02,47,8.80
2010,09,21,02,48,8.80
2010,09,21,02,49,8.80
2010,09,21,02,50,8.80
2010,09,21,02,51,8.80
2010,09,21,02,52,8.80
2010,09,21,02,53,8.80
2010,09,21,02,54,8.80
2010,09,21,02,55,8.80
2010,09,21,02,56,8.80
2010,09,21,02,57,8.70
2010,09,21,02,58,8.70
2010,09,21,02,59,8.70
2010,09,21,03,00,8.70
2010,09,21,03,01,8.70
2010,09,21,03,02,8.70
2010,09,21,03,03,8.70
2010,09,21,03,04,8.70
2010,09,21,03,05,8.70
2010,09,21,03,06,8.70
2010,09,21,03,07,8.70
2010,09,21,03,08,8.70
2010,09,21,03,09,8.70
2010,09,21,03,10,8.70
2010,09,21,03,11,8.70
2010,09,21,03,12,8.70
2010,09,21,03,13,8.70
2010,09,21,03,14,8.70
2010,09,21,03,15,8.70
2010,09,21,03,16,8.70
2010,09,21,03,17,8.70
2010,09,21,03,18,8.70
2010,09,21,03,19,8.70
2010,09,21,03,20,8.60
2010,09,21,03,21,8.60
2010,09,21,03,22,8.60
2010,09,21,03,23,8.60
2010,09,21,03,24,8.70
2010,09,21,03,25,8.60
2010,09,21,03,26,8.70
2010,09,21,03,27,8.60
2010,09,21,03,28,8.60
2010,09,21,03,29,8.60
2010,09,21,03,30,8.60
2010,09,21,03,31,8.60
2010,09,21,03,32,8.60
2010,09,21,03,33,8.60
2010,09,21,03,34,8.60
2010,09,21,03,35,8.60
2010,09,21,03,36,8.60
2010,09,21,03,37,8.60
2010,09,21,03,38,8.60
2010,09,21,03,39,8.60
2010,09,21,03,40,8.60
2010,09,21,03,41,8.60
2010,09,21,03,42,8.60
2010,09,21,03,43,8.60
2010,09,21,03,44,8.60
2010,09,21,03,45,8.60
2010,09,21,03,46,8.60
2010,09,21,03,47,8.60
2010,09,21,03,48,8.60
2010,09,21,03,49,8.60
2010,09,21,03,50,8.60
2010,09,21,03,51,8.60
2010,09,21,03,52,8.60
2010,09,21,03,53,8.60
2010,09,21,03,54,8.60
2010,09,21,03,55,8.60
2010,09,21,03,56,8.60
2010,09,21,03,57,8.60
2010,09,21,03,58,8.60
2010,09,21,03,59,8.60
2010,09,21,04,00,8.60
2010,09,21,04,01,8.50
2010,09,21,04,02,8.50
2010,09,21,04,03,8.50
2010,09,21,04,04,8.50
2010,09,21,04,05,8.50
2010,09,21,04,06,8.50
2010,09,21,04,07,8.50
2010,09,21,04,08,8.50
2010,09,21,04,09,8.50
2010,09,21,04,10,8.50
2010,09,21,04,11,8.50
2010,09,21,04,12,8.50
2010,09,21,04,13,8.50
2010,09,21,04,14,8.50
2010,09,21,04,15,8.50
2010,09,21,04,16,8.50
2010,09,21,04,17,8.50
2010,09,21,04,18,8.50
2010,09,21,04,19,8.50
2010,09,21,04,20,8.40
2010,09,21,04,21,8.40
2010,09,21,04,22,8.40
2010,09,21,04,23,8.40
2010,09,21,04,24,8.40
2010,09,21,04,25,8.40
2010,09,21,04,26,8.40
2010,09,21,04,27,8.40
2010,09,21,04,28,8.40
2010,09,21,04,29,8.40
2010,09,21,04,30,8.40
2010,09,21,04,31,8.40
2010,09,21,04,32,8.40
2010,09,21,04,33,8.40
2010,09,21,04,34,8.40
2010,09,21,04,35,8.40
2010,09,21,04,36,8.40
2010,09,21,04,37,8.40
2010,09,21,04,38,8.40
2010,09,21,04,39,8.40
2010,09,21,04,40,8.40
2010,09,21,04,41,8.40
2010,09,21,04,42,8.40
2010,09,21,04,43,8.40
2010,09,21,04,44,8.40
2010,09,21,04,45,8.30
2010,09,21,04,46,8.30
2010,09,21,04,47,8.30
2010,09,21,04,48,8.30
2010,09,21,04,49,8.30
2010,09,21,04,50,8.30
2010,09,21,04,51,8.30
2010,09,21,04,52,8.20
2010,09,21,04,53,8.20
2010,09,21,04,54,8.20
2010,09,21,04,55,8.20
2010,09,21,04,56,8.20
2010,09,21,04,57,8.20
2010,09,21,04,58,8.20
2010,09,21,04,59,8.20
2010,09,21,05,00,8.20
2010,09,21,05,01,8.20
2010,09,21,05,02,8.20
2010,09,21,05,03,8.20
2010,09,21,05,04,8.20
2010,09,21,05,05,8.20
2010,09,21,05,06,8.20
2010,09,21,05,07,8.20
2010,09,21,05,08,8.20
2010,09,21,05,09,8.20
2010,09,21,05,10,8.20
2010,09,21,05,11,8.10
2010,09,21,05,12,8.10
2010,09,21,05,13,8.10
2010,09,21,05,14,8.10
2010,09,21,05,15,8.10
2010,09,21,05,16,8.10
2010,09,21,05,17,8.10
2010,09,21,05,18,8.10
2010,09,21,05,19,8.10
2010,09,21,05,20,8.10
2010,09,21,05,21,8.00
2010,09,21,05,22,8.00
2010,09,21,05,23,8.00
2010,09,21,05,24,8.00
2010,09,21,05,25,8.00
2010,09,21,05,26,8.00
2010,09,21,05,27,8.00
2010,09,21,05,28,8.00
2010,09,21,05,29,8.00
2010,09,21,05,30,8.00
2010,09,21,05,31,8.10
2010,09,21,05,32,8.10
2010,09,21,05,33,8.10
2010,09,21,05,34,8.10
2010,09,21,05,35,8.10
2010,09,21,05,36,8.10
2010,09,21,05,37,8.10
2010,09,21,05,38,8.10
2010,09,21,05,39,8.10
2010,09,21,05,40,8.10
2010,09,21,05,41,8.10
2010,09,21,05,42,8.00
2010,09,21,05,43,8.10
2010,09,21,05,44,8.10
2010,09,21,05,45,8.00
2010,09,21,05,46,8.10
2010,09,21,05,47,8.10
2010,09,21,05,48,8.10
2010,09,21,05,49,8.10
2010,09,21,05,50,8.10
2010,09,21,05,51,8.10
2010,09,21,05,52,8.10
2010,09,21,05,53,8.10
2010,09,21,05,54,8.10
2010,09,21,05,55,8.10
2010,09,21,05,56,8.10
2010,09,21,05,57,8.10
2010,09,21,05,58,8.10
2010,09,21,05,59,8.10
2010,09,21,06,00,8.10
2010,09,21,06,01,8.10
2010,09,21,06,02,8.10
2010,09,21,06,03,8.10
2010,09,21,06,04,8.10
2010,09,21,06,05,8.10
2010,09,21,06,06,8.10
2010,09,21,06,07,8.20
2010,09,21,06,08,8.20
2010,09,21,06,09,8.20
2010,09,21,06,10,8.20
2010,09,21,06,11,8.20
2010,09,21,06,12,8.20
2010,09,21,06,13,8.20
2010,09,21,06,14,8.20
2010,09,21,06,15,8.20
2010,09,21,06,16,8.20
2010,09,21,06,17,8.20
2010,09,21,06,18,8.20
2010,09,21,06,19,8.20
2010,09,21,06,20,8.20
2010,09,21,06,21,8.20
2010,09,21,06,22,8.20
2010,09,21,06,23,8.20
2010,09,21,06,24,8.20
2010,09,21,06,25,8.20
2010,09,21,06,26,8.20
2010,09,21,06,27,8.20
2010,09,21,06,28,8.20
2010,09,21,06,29,8.20
2010,09,21,06,30,8.20
2010,09,21,06,31,8.20
2010,09,21,06,32,8.20
2010,09,21,06,33,8.20
2010,09,21,06,34,8.20
2010,09,21,06,35,8.20
2010,09,21,06,36,8.20
2010,09,21,06,37,8.20
2010,09,21,06,38,8.20
2010,09,21,06,39,8.20
2010,09,21,06,40,8.10
2010,09,21,06,41,8.10
2010,09,21,06,42,8.10
2010,09,21,06,43,8.10
2010,09,21,06,44,8.10
2010,09,21,06,45,8.10
2010,09,21,06,46,8.10
2010,09,21,06,47,8.10
2010,09,21,06,48,8.00
2010,09,21,06,49,8.00
2010,09,21,06,50,8.00
2010,09,21,06,51,8.00
2010,09,21,06,52,8.00
2010,09,21,06,53,7.90
2010,09,21,06,54,7.90
2010,09,21,06,55,7.90
2010,09,21,06,56,7.90
2010,09,21,06,57,7.90
2010,09,21,06,58,7.90
2010,09,21,06,59,7.90
2010,09,21,07,00,7.90
2010,09,21,07,01,7.80
2010,09,21,07,02,7.80
2010,09,21,07,03,7.80
2010,09,21,07,04,7.80
2010,09,21,07,05,7.80
2010,09,21,07,06,7.80
2010,09,21,07,07,7.80
2010,09,21,07,08,7.80
2010,09,21,07,09,7.80
2010,09,21,07,10,7.80
2010,09,21,07,11,7.80
2010,09,21,07,12,7.80
2010,09,21,07,13,7.80
2010,09,21,07,14,7.80
2010,09,21,07,15,7.80
2010,09,21,07,16,7.80
2010,09,21,07,17,7.80
2010,09,21,07,18,7.80
2010,09,21,07,19,7.80
2010,09,21,07,20,7.70
2010,09,21,07,21,7.70
2010,09,21,07,22,7.70
2010,09,21,07,23,7.70
2010,09,21,07,24,7.70
2010,09,21,07,25,7.70
2010,09,21,07,26,7.70
2010,09,21,07,27,7.70
2010,09,21,07,28,7.70
2010,09,21,07,29,7.70
2010,09,21,07,30,7.70
2010,09,21,07,31,7.70
2010,09,21,07,32,7.70
2010,09,21,07,33,7.70
2010,09,21,07,34,7.70
2010,09,21,07,35,7.70
2010,09,21,07,36,7.70
2010,09,21,07,37,7.70
2010,09,21,07,38,7.80
2010,09,21,07,39,7.80
2010,09,21,07,40,7.80
2010,09,21,07,41,7.80
2010,09,21,07,42,7.80
2010,09,21,07,43,7.80
2010,09,21,07,44,7.80
2010,09,21,07,45,7.80
2010,09,21,07,46,7.90
2010,09,21,07,47,7.90
2010,09,21,07,48,7.90
2010,09,21,07,49,7.90
2010,09,21,07,50,7.90
2010,09,21,07,51,7.90
2010,09,21,07,52,8.00
2010,09,21,07,53,8.00
2010,09,21,07,54,8.00
2010,09,21,07,55,8.10
2010,09,21,07,56,8.10
2010,09,21,07,57,8.10
2010,09,21,07,58,8.10
2010,09,21,07,59,8.20
2010,09,21,08,00,8.20
2010,09,21,08,01,8.20
2010,09,21,08,02,8.20
2010,09,21,08,03,8.30
2010,09,21,08,04,8.30
2010,09,21,08,05,8.30
2010,09,21,08,06,8.30
2010,09,21,08,07,8.30
2010,09,21,08,08,8.30
2010,09,21,08,09,8.30
2010,09,21,08,10,8.40
2010,09,21,08,11,8.40
2010,09,21,08,12,8.40
2010,09,21,08,13,8.50
2010,09,21,08,14,8.50
2010,09,21,08,15,8.50
2010,09,21,08,16,8.60
2010,09,21,08,17,8.60
2010,09,21,08,18,8.60
2010,09,21,08,19,8.60
2010,09,21,08,20,8.70
2010,09,21,08,21,8.70
2010,09,21,08,22,8.70
2010,09,21,08,23,8.70
2010,09,21,08,24,8.80
2010,09,21,08,25,8.80
2010,09,21,08,26,8.80
2010,09,21,08,27,8.80
2010,09,21,08,28,8.80
2010,09,21,08,29,8.90
2010,09,21,08,30,8.90
2010,09,21,08,31,8.90
2010,09,21,08,32,8.90
2010,09,21,08,33,9.00
2010,09,21,08,34,9.00
2010,09,21,08,35,9.10
2010,09,21,08,36,9.10
2010,09,21,08,37,9.10
2010,09,21,08,38,9.10
2010,09,21,08,39,9.10
2010,09,21,08,40,9.20
2010,09,21,08,41,9.20
2010,09,21,08,42,9.20
2010,09,21,08,43,9.20
2010,09,21,08,44,9.30
2010,09,21,08,45,9.30
2010,09,21,08,46,9.30
2010,09,21,08,47,9.30
2010,09,21,08,48,9.40
2010,09,21,08,49,9.40
2010,09,21,08,50,9.40
2010,09,21,08,51,9.40
2010,09,21,08,52,9.50
2010,09,21,08,53,9.60
2010,09,21,08,54,9.60
2010,09,21,08,55,9.60
2010,09,21,08,56,9.70
2010,09,21,08,57,9.70
2010,09,21,08,58,9.70
2010,09,21,08,59,9.80
2010,09,21,09,00,9.80
2010,09,21,09,01,9.80
2010,09,21,09,02,9.80
2010,09,21,09,03,9.80
2010,09,21,09,04,9.90
2010,09,21,09,05,9.90
2010,09,21,09,06,9.90
2010,09,21,09,07,9.90
2010,09,21,09,08,9.90
2010,09,21,09,09,10.00
2010,09,21,09,10,10.00
2010,09,21,09,11,10.10
2010,09,21,09,12,10.10
2010,09,21,09,13,10.10
2010,09,21,09,14,10.10
2010,09,21,09,15,10.20
2010,09,21,09,16,10.20
2010,09,21,09,17,10.20
2010,09,21,09,18,10.30
2010,09,21,09,19,10.30
2010,09,21,09,20,10.30
2010,09,21,09,21,10.30
2010,09,21,09,22,10.40
2010,09,21,09,23,10.40
2010,09,21,09,24,10.40
2010,09,21,09,25,10.50
2010,09,21,09,26,10.50
2010,09,21,09,27,10.60
2010,09,21,09,28,10.60
2010,09,21,09,29,10.60
2010,09,21,09,30,10.70
2010,09,21,09,31,10.70
2010,09,21,09,32,10.70
2010,09,21,09,33,10.80
2010,09,21,09,34,10.80
2010,09,21,09,35,10.80
2010,09,21,09,36,10.80
2010,09,21,09,37,10.80
2010,09,21,09,38,10.80
2010,09,21,09,39,10.90
2010,09,21,09,40,10.90
2010,09,21,09,41,10.90
2010,09,21,09,42,10.90
2010,09,21,09,43,10.90
2010,09,21,09,44,10.90
2010,09,21,09,45,10.90
2010,09,21,09,46,11.00
2010,09,21,09,47,11.00
2010,09,21,09,48,11.00
2010,09,21,09,49,11.00
2010,09,21,09,50,11.00
2010,09,21,09,51,11.00
2010,09,21,09,52,11.00
2010,09,21,09,53,11.00
2010,09,21,09,54,11.00
2010,09,21,09,55,11.10
2010,09,21,09,56,11.10
2010,09,21,09,57,11.10
2010,09,21,09,58,11.10
2010,09,21,09,59,11.10
2010,09,21,10,00,11.10
2010,09,21,10,01,11.10
2010,09,21,10,02,11.10
2010,09,21,10,03,11.10
2010,09,21,10,04,11.20
2010,09,21,10,05,11.20
2010,09,21,10,06,11.20
2010,09,21,10,07,11.20
2010,09,21,10,08,11.20
2010,09,21,10,09,11.20
2010,09,21,10,10,11.20
2010,09,21,10,11,11.20
2010,09,21,10,12,11.20
2010,09,21,10,13,11.20
2010,09,21,10,14,11.20
2010,09,21,10,15,11.20
2010,09,21,10,16,11.20
2010,09,21,10,17,11.20
2010,09,21,10,18,11.20
2010,09,21,10,19,11.30
2010,09,21,10,20,11.30
2010,09,21,10,21,11.30
2010,09,21,10,22,11.30
2010,09,21,10,23,11.40
2010,09,21,10,24,11.40
2010,09,21,10,25,11.40
2010,09,21,10,26,11.40
2010,09,21,10,27,11.40
2010,09,21,10,28,11.50
2010,09,21,10,29,11.50
2010,09,21,10,30,11.50
2010,09,21,10,31,11.60
2010,09,21,10,32,11.60
2010,09,21,10,33,11.60
2010,09,21,10,34,11.60
2010,09,21,10,35,11.60
2010,09,21,10,36,11.60
2010,09,21,10,37,11.60
2010,09,21,10,38,11.60
2010,09,21,10,39,11.60
2010,09,21,10,40,11.60
2010,09,21,10,41,11.70
2010,09,21,10,42,11.70
2010,09,21,10,43,11.70
2010,09,21,10,44,11.70
2010,09,21,10,45,11.70
2010,09,21,10,46,11.70
2010,09,21,10,47,11.70
2010,09,21,10,48,11.70
2010,09,21,10,49,11.70
2010,09,21,10,50,11.70
2010,09,21,10,51,11.80
2010,09,21,10,52,11.80
2010,09,21,10,53,11.80
2010,09,21,10,54,11.80
2010,09,21,10,55,11.90
2010,09,21,10,56,11.90
2010,09,21,10,57,11.90
2010,09,21,10,58,11.90
2010,09,21,10,59,12.00
2010,09,21,11,00,12.00
2010,09,21,11,01,12.00
2010,09,21,11,02,12.10
2010,09,21,11,03,12.10
2010,09,21,11,04,12.10
2010,09,21,11,05,12.20
2010,09,21,11,06,12.20
2010,09,21,11,07,12.20
2010,09,21,11,08,12.20
2010,09,21,11,09,12.20
2010,09,21,11,10,12.30
2010,09,21,11,11,12.30
2010,09,21,11,12,12.30
2010,09,21,11,13,12.30
2010,09,21,11,14,12.30
2010,09,21,11,15,12.40
2010,09,21,11,16,12.40
2010,09,21,11,17,12.40
2010,09,21,11,18,12.50
2010,09,21,11,19,12.50
2010,09,21,11,20,12.60
2010,09,21,11,21,12.60
2010,09,21,11,22,12.70
2010,09,21,11,23,12.70
2010,09,21,11,24,12.70
2010,09,21,11,25,12.80
2010,09,21,11,26,12.80
2010,09,21,11,27,12.80
2010,09,21,11,28,12.80
2010,09,21,11,29,12.80
2010,09,21,11,30,12.80
2010,09,21,11,31,12.80
2010,09,21,11,32,12.80
2010,09,21,11,33,12.80
2010,09,21,11,34,12.80
2010,09,21,11,35,12.80
2010,09,21,11,36,12.80
2010,09,21,11,37,12.80
2010,09,21,11,38,12.80
2010,09,21,11,39,12.90
2010,09,21,11,40,12.90
2010,09,21,11,41,12.90
2010,09,21,11,42,13.00
2010,09,21,11,43,13.00
2010,09,21,11,44,13.10
2010,09,21,11,45,13.10
2010,09,21,11,46,13.20
2010,09,21,11,47,13.20
2010,09,21,11,48,13.20
2010,09,21,11,49,13.30
2010,09,21,11,50,13.30
2010,09,21,11,51,13.30
2010,09,21,11,52,13.30
2010,09,21,11,53,13.30
2010,09,21,11,54,13.30
2010,09,21,11,55,13.40
2010,09,21,11,56,13.40
2010,09,21,11,57,13.40
2010,09,21,11,58,13.40
2010,09,21,11,59,13.50
2010,09,21,12,00,13.50
2010,09,21,12,01,13.50
2010,09,21,12,02,13.60
2010,09,21,12,03,13.60
2010,09,21,12,04,13.60
2010,09,21,12,05,13.60
2010,09,21,12,06,13.70
2010,09,21,12,07,13.80
2010,09,21,12,08,13.80
2010,09,21,12,09,13.90
2010,09,21,12,10,13.90
2010,09,21,12,11,13.90
2010,09,21,12,12,13.90
2010,09,21,12,13,14.00
2010,09,21,12,14,14.00
2010,09,21,12,15,14.00
2010,09,21,12,16,14.10
2010,09,21,12,17,14.10
2010,09,21,12,18,14.10
2010,09,21,12,19,14.10
2010,09,21,12,20,14.10
2010,09,21,12,21,14.20
2010,09,21,12,22,14.20
2010,09,21,12,23,14.20
2010,09,21,12,24,14.20
2010,09,21,12,25,14.20
2010,09,21,12,26,14.20
2010,09,21,12,27,14.20
2010,09,21,12,28,14.20
2010,09,21,12,29,14.20
2010,09,21,12,30,14.20
2010,09,21,12,31,14.20
2010,09,21,12,32,14.20
2010,09,21,12,33,14.20
2010,09,21,12,34,14.20
2010,09,21,12,35,14.20
2010,09,21,12,36,14.20
2010,09,21,12,37,14.30
2010,09,21,12,38,14.30
2010,09,21,12,39,14.30
2010,09,21,12,40,14.30
2010,09,21,12,41,14.30
2010,09,21,12,42,14.40
2010,09,21,12,43,14.40
2010,09,21,12,44,14.40
2010,09,21,12,45,14.40
2010,09,21,12,46,14.50
2010,09,21,12,47,14.50
2010,09,21,12,48,14.50
2010,09,21,12,49,14.50
2010,09,21,12,50,14.50
2010,09,21,12,51,14.50
2010,09,21,12,52,14.50
2010,09,21,12,53,14.50
2010,09,21,12,54,14.50
2010,09,21,12,55,14.50
2010,09,21,12,56,14.50
2010,09,21,12,57,14.40
2010,09,21,12,58,14.40
2010,09,21,12,59,14.40
2010,09,21,13,00,14.40
2010,09,21,13,01,14.50
2010,09,21,13,02,14.50
2010,09,21,13,03,14.50
2010,09,21,13,04,14.50
2010,09,21,13,05,14.50
2010,09,21,13,06,14.60
2010,09,21,13,07,14.60
2010,09,21,13,08,14.60
2010,09,21,13,09,14.60
2010,09,21,13,10,14.60
2010,09,21,13,11,14.60
2010,09,21,13,12,14.60
2010,09,21,13,13,14.60
2010,09,21,13,14,14.60
2010,09,21,13,15,14.70
2010,09,21,13,16,14.70
2010,09,21,13,17,14.80
2010,09,21,13,18,14.90
2010,09,21,13,19,14.90
2010,09,21,13,20,15.00
2010,09,21,13,21,15.00
2010,09,21,13,22,15.00
2010,09,21,13,23,15.00
2010,09,21,13,24,15.10
2010,09,21,13,25,15.20
2010,09,21,13,26,15.20
2010,09,21,13,27,15.20
2010,09,21,13,28,15.20
2010,09,21,13,29,15.30
2010,09,21,13,30,15.30
2010,09,21,13,31,15.30
2010,09,21,13,32,15.30
2010,09,21,13,33,15.30
2010,09,21,13,34,15.30
2010,09,21,13,35,15.30
2010,09,21,13,36,15.30
2010,09,21,13,37,15.40
2010,09,21,13,38,15.40
2010,09,21,13,39,15.40
2010,09,21,13,40,15.40
2010,09,21,13,41,15.50
2010,09,21,13,42,15.50
2010,09,21,13,43,15.60
2010,09,21,13,44,15.60
2010,09,21,13,45,15.60
2010,09,21,13,46,15.60
2010,09,21,13,47,15.60
2010,09,21,13,48,15.60
2010,09,21,13,49,15.60
2010,09,21,13,50,15.70
2010,09,21,13,51,15.70
2010,09,21,13,52,15.70
2010,09,21,13,53,15.80
2010,09,21,13,54,15.80
2010,09,21,13,55,15.90
2010,09,21,13,56,15.90
2010,09,21,13,57,15.90
2010,09,21,13,58,15.90
2010,09,21,13,59,15.90
2010,09,21,14,00,15.90
2010,09,21,14,01,15.90
2010,09,21,14,02,15.90
2010,09,21,14,03,15.90
2010,09,21,14,04,15.90
2010,09,21,14,05,15.90
2010,09,21,14,06,15.90
2010,09,21,14,07,15.80
2010,09,21,14,08,15.80
2010,09,21,14,09,15.80
2010,09,21,14,10,15.80
2010,09,21,14,11,15.80
2010,09,21,14,12,15.80
2010,09,21,14,13,15.80
2010,09,21,14,14,15.90
2010,09,21,14,15,15.90
2010,09,21,14,16,15.90
2010,09,21,14,17,15.90
2010,09,21,14,18,15.90
2010,09,21,14,19,15.80
2010,09,21,14,20,15.80
2010,09,21,14,21,15.80
2010,09,21,14,22,15.80
2010,09,21,14,23,15.80
2010,09,21,14,24,15.80
2010,09,21,14,25,15.80
2010,09,21,14,26,15.80
2010,09,21,14,27,15.80
2010,09,21,14,28,15.90
2010,09,21,14,29,15.90
2010,09,21,14,30,16.00
2010,09,21,14,31,16.10
2010,09,21,14,32,16.20
2010,09,21,14,33,16.30
2010,09,21,14,34,16.30
2010,09,21,14,35,16.40
2010,09,21,14,36,16.40
2010,09,21,14,37,16.50
2010,09,21,14,38,16.50
2010,09,21,14,39,16.60
2010,09,21,14,40,16.60
2010,09,21,14,41,16.70
2010,09,21,14,42,16.70
2010,09,21,14,43,16.80
2010,09,21,14,44,16.90
2010,09,21,14,45,16.90
2010,09,21,14,46,17.00
2010,09,21,14,47,17.10
2010,09,21,14,48,17.20
2010,09,21,14,49,17.20
2010,09,21,14,50,17.20
2010,09,21,14,51,17.20
2010,09,21,14,52,17.10
2010,09,21,14,53,17.00
2010,09,21,14,54,16.80
2010,09,21,14,55,16.80
2010,09,21,14,56,16.70
2010,09,21,14,57,16.70
2010,09,21,14,58,16.60
2010,09,21,14,59,16.50
2010,09,21,15,00,16.50
2010,09,21,15,01,16.50
2010,09,21,15,02,16.50
2010,09,21,15,03,16.50
2010,09,21,15,04,16.60
2010,09,21,15,05,16.70
2010,09,21,15,06,16.80
2010,09,21,15,07,16.80
2010,09,21,15,08,16.90
2010,09,21,15,09,17.00
2010,09,21,15,10,17.10
2010,09,21,15,11,17.20
2010,09,21,15,12,17.30
2010,09,21,15,13,17.40
2010,09,21,15,14,17.50
2010,09,21,15,15,17.60
2010,09,21,15,16,17.60
2010,09,21,15,17,17.70
2010,09,21,15,18,17.80
2010,09,21,15,19,17.80
2010,09,21,15,20,17.70
2010,09,21,15,21,17.60
2010,09,21,15,22,17.60
2010,09,21,15,23,17.50
2010,09,21,15,24,17.50
2010,09,21,15,25,17.50
2010,09,21,15,26,17.60
2010,09,21,15,27,17.60
2010,09,21,15,28,17.60
2010,09,21,15,29,17.70
2010,09,21,15,30,17.70
2010,09,21,15,31,17.70
2010,09,21,15,32,17.70
2010,09,21,15,33,17.80
2010,09,21,15,34,17.80
2010,09,21,15,35,17.90
2010,09,21,15,36,17.90
2010,09,21,15,37,18.00
2010,09,21,15,38,18.10
2010,09,21,15,39,18.20
2010,09,21,15,40,18.20
2010,09,21,15,41,18.20
2010,09,21,15,42,18.20
2010,09,21,15,43,18.20
2010,09,21,15,44,18.20
2010,09,21,15,45,18.20
2010,09,21,15,46,18.20
2010,09,21,15,47,18.20
2010,09,21,15,48,18.20
2010,09,21,15,49,18.10
2010,09,21,15,50,18.00
2010,09,21,15,51,17.90
2010,09,21,15,52,17.90
2010,09,21,15,53,17.80
2010,09,21,15,54,17.70
2010,09,21,15,55,17.70
2010,09,21,15,56,17.70
2010,09,21,15,57,17.60
2010,09,21,15,58,17.60
2010,09,21,15,59,17.60
2010,09,21,16,00,17.60
2010,09,21,16,01,17.60
2010,09,21,16,02,17.70
2010,09,21,16,03,17.80
2010,09,21,16,04,17.90
2010,09,21,16,05,17.90
2010,09,21,16,06,17.90
2010,09,21,16,07,17.90
2010,09,21,16,08,17.90
2010,09,21,16,09,17.80
2010,09,21,16,10,17.90
2010,09,21,16,11,17.80
2010,09,21,16,12,17.80
2010,09,21,16,13,17.80
2010,09,21,16,14,17.80
2010,09,21,16,15,17.70
2010,09,21,16,16,17.70
2010,09,21,16,17,17.70
2010,09,21,16,18,17.70
2010,09,21,16,19,17.70
2010,09,21,16,20,17.70
2010,09,21,16,21,17.70
2010,09,21,16,22,17.70
2010,09,21,16,23,17.70
2010,09,21,16,24,17.70
2010,09,21,16,25,17.60
2010,09,21,16,26,17.60
2010,09,21,16,27,17.60
2010,09,21,16,28,17.60
2010,09,21,16,29,17.60
2010,09,21,16,30,17.60
2010,09,21,16,31,17.60
2010,09,21,16,32,17.60
2010,09,21,16,33,17.60
2010,09,21,16,34,17.60
2010,09,21,16,35,17.60
2010,09,21,16,36,17.60
2010,09,21,16,37,17.60
2010,09,21,16,38,17.50
2010,09,21,16,39,17.60
2010,09,21,16,40,17.50
2010,09,21,16,41,17.50
2010,09,21,16,42,17.50
2010,09,21,16,43,17.50
2010,09,21,16,44,17.40
2010,09,21,16,45,17.40
2010,09,21,16,46,17.30
2010,09,21,16,47,17.30
2010,09,21,16,48,17.30
2010,09,21,16,49,17.20
2010,09,21,16,50,17.20
2010,09,21,16,51,17.20
2010,09,21,16,52,17.20
2010,09,21,16,53,17.20
2010,09,21,16,54,17.20
2010,09,21,16,55,17.20
2010,09,21,16,56,17.10
2010,09,21,16,57,17.10
2010,09,21,16,58,17.10
2010,09,21,16,59,17.10
2010,09,21,17,00,17.10
2010,09,21,17,01,17.00
2010,09,21,17,02,17.00
2010,09,21,17,03,17.00
2010,09,21,17,04,17.00
2010,09,21,17,05,16.90
2010,09,21,17,06,16.90
2010,09,21,17,07,16.90
2010,09,21,17,08,16.90
2010,09,21,17,09,16.90
2010,09,21,17,10,16.90
2010,09,21,17,11,16.90
2010,09,21,17,12,17.00
2010,09,21,17,13,17.10
2010,09,21,17,14,17.10
2010,09,21,17,15,17.10
2010,09,21,17,16,17.20
2010,09,21,17,17,17.20
2010,09,21,17,18,17.20
2010,09,21,17,19,17.20
2010,09,21,17,20,17.20
2010,09,21,17,21,17.10
2010,09,21,17,22,17.10
2010,09,21,17,23,17.10
2010,09,21,17,24,17.20
2010,09,21,17,25,17.20
2010,09,21,17,26,17.20
2010,09,21,17,27,17.20
2010,09,21,17,28,17.20
2010,09,21,17,29,17.30
2010,09,21,17,30,17.30
2010,09,21,17,31,17.30
2010,09,21,17,32,17.30
2010,09,21,17,33,17.30
2010,09,21,17,34,17.30
2010,09,21,17,35,17.30
2010,09,21,17,36,17.30
2010,09,21,17,37,17.20
2010,09,21,17,38,17.20
2010,09,21,17,39,17.20
2010,09,21,17,40,17.10
2010,09,21,17,41,17.10
2010,09,21,17,42,17.00